Dewpoint
-7 -6 -5 -5 -4 -4 -3 -4 0 4 7 7 7 7 6 5 -0 -5 -6 -6 -6 -7 -7 -8 -11 -14 -15 -13 -9 -3 2 7 11
-6 -5 -5 -5 -4 -3 -3 -3 -3 -1 1 1 2 2 1 1 1 -1 -4 -3 -1 -0 -1 -2 -4 -7 -11 -14 -14 -13 -9 -4 3
-6 -5 -4 -3 -3 -2 -2 -1 -1 -1 -1 -0 1 2 -0 1 0 -1 1 0 0 2 1 1 1 -0 -3 -8 -12 -14 -15 -14 -10
-4 -4 -3 -3 -2 -1 -1 -1 -1 -1 -1 -0 -0 1 0 0 0 0 -0 -0 1 3 5 5 0 1 1 -1 -5 -9 -13 -15 -14
-2 -3 -3 -2 -2 -2 -2 -2 -1 -1 -0 0 0 1 1 1 0 1 1 0 0 1 1 2 3 1 0 1 1 -3 -8 -12 -14
-2 -3 -2 -2 -2 -2 -1 -1 -1 -1 -0 -0 -0 0 1 0 0 1 1 1 1 1 1 2 3 3 1 1 1 1 -1 -6 -11
-0 -1 -1 -2 -2 -2 -1 -1 -1 -1 -0 -0 -0 -0 0 0 1 1 2 2 3 4 5 4 5 4 3 2 2 1 1 0 -5
-1 -2 -3 -2 -2 -2 -2 -1 -1 1 1 0 0 0 1 2 2 3 4 5 6 7 7 8 7 7 7 6 5 3 2 2 0
1 -2 -2 -4 -3 -2 -1 2 3 5 4 6 7 7 7 6 6 6 6 7 8 8 8 8 9 9 9 7 7 6 4 3 2
0 -1 0 0 -0 0 1 2 2 3 6 8 9 9 9 8 8 8 8 8 9 9 9 9 9 10 9 9 8 8 8 7 5
6 4 4 3 2 2 2 3 4 7 8 9 9 9 9 9 10 11 10 10 10 11 11 10 10 10 10 9 9 9 9 8 9
8 6 5 6 6 6 6 5 6 8 9 10 10 10 10 11 11 11 11 11 11 12 11 10 11 10 8 9 10 10 10 10 9
9 8 7 8 9 9 9 9 9 9 10 10 11 11 11 11 10 10 10 11 11 11 10 9 9 8 8 8 9 9 10 10 10
11 9 8 9 10 11 11 12 11 11 11 11 11 11 11 10 10 10 10 11 12 11 10 9 9 9 9 7 8 8 9 10 10
12 10 9 11 11 12 12 12 12 11 11 11 10 10 10 10 9 9 9 9 11 11 10 10 9 10 9 8 7 7 8 8 8
12 11 11 11 12 12 12 12 11 11 11 10 10 10 9 9 8 8 8 8 9 9 9 9 9 9 7 8 8 7 7 7 7
13 13 12 12 12 12 12 12 12 11 10 10 10 9 9 8 7 8 8 7 9 8 9 9 8 7 7 7 6 6 6 5 6
12 13 13 13 13 12 12 12 11 11 11 10 11 10 9 10 9 9 9 8 9 9 8 8 7 6 7 7 7 6 6 5 6
12 13 13 13 13 12 12 12 12 10 9 7 10 8 10 10 9 8 8 9 8 8 8 8 8 8 8 7 7 4 5 4 3
10 10 11 10 9 10 10 8 2 0 -2 -2 -2 -2 0 5 10 8 9 7 6 7 7 8 8 9 8 7 6 5 4 3 3
Wind_Speed
20 19 21 21 21 21 21 20 18 16 15 13 12 12 12 10 11 12 12 13 13 12 12 12 12 11 9 7 6 5 4 5 7
21 21 20 20 20 20 19 18 17 14 12 10 8 8 9 10 10 10 9 10 11 11 11 11 11 11 11 9 8 6 5 3 1
20 20 19 18 17 17 16 15 14 12 10 9 8 5 7 7 8 9 8 7 7 9 10 11 11 11 10 10 9 8 7 6 4
17 18 17 16 15 14 13 12 11 9 8 6 6 4 5 6 6 7 8 8 8 7 8 10 10 10 10 10 9 9 8 7 7
14 13 13 12 11 10 9 8 8 7 6 4 3 2 3 4 5 7 8 9 9 9 9 10 9 10 10 10 10 9 8 8 7
12 12 11 10 9 8 7 6 5 4 4 3 2 0 2 4 5 6 7 8 10 10 9 10 10 10 10 10 10 10 10 9 8
12 10 9 8 7 6 6 5 4 3 2 2 2 2 3 5 5 6 7 8 9 10 10 10 10 11 11 11 11 10 10 9 8
11 9 8 8 8 7 6 6 5 4 2 3 3 3 3 4 6 6 6 7 8 9 10 10 11 11 11 12 12 11 10 9 9
9 8 7 8 8 8 7 6 5 3 2 1 2 3 3 4 6 6 7 7 9 10 10 10 11 11 10 11 11 10 9 9 9
7 8 8 7 8 7 7 6 5 4 3 3 4 4 5 6 6 7 7 8 9 10 12 13 14 13 11 13 12 9 8 8 8
9 11 9 8 7 7 7 6 5 4 5 6 7 7 8 7 8 9 9 11 12 12 12 13 13 12 15 16 15 13 10 9 8
13 12 11 8 7 7 7 7 7 8 9 9 11 10 9 9 11 13 15 14 15 14 13 14 13 13 14 16 16 16 18 14 11
14 12 12 9 8 8 8 9 10 10 11 11 9 9 11 12 13 15 17 18 19 18 16 16 14 16 14 14 16 17 16 18 17
13 14 12 12 11 10 9 9 10 10 10 11 13 14 15 17 19 20 20 21 22 20 15 15 15 17 16 15 14 14 15 16 16
13 14 14 13 12 10 9 11 12 12 14 16 17 19 21 21 19 20 19 19 20 18 14 15 15 15 17 15 12 12 13 13 15
15 14 14 14 12 12 13 15 16 16 15 19 20 23 23 24 22 20 20 20 18 18 21 16 14 16 18 13 11 10 12 15 15
17 15 14 14 13 15 17 19 20 19 17 20 23 27 26 24 17 15 13 15 13 17 17 15 14 16 15 13 12 13 13 15 16
20 19 17 17 18 19 19 18 19 21 22 21 23 15 11 14 14 11 16 16 13 14 14 18 18 19 15 14 13 14 15 16 20
24 23 21 21 21 21 21 22 24 26 28 27 29 28 29 28 17 16 13 15 14 15 16 19 22 18 16 15 14 12 13 17 18
25 24 23 20 20 21 22 24 25 25 26 25 25 23 22 23 25 24 21 21 19 19 21 20 18 17 16 15 13 14 14 15 15
Wind_Direction
124 121 122 123 120 117 117 118 121 115 107 100 100 95 86 72 64 68 66 66 63 59 54 49 46 44 42 39 34 46 45 62 72
123 122 122 120 119 119 121 121 121 121 118 110 93 80 76 70 64 61 61 57 54 50 46 43 41 39 38 36 33 24 20 40 56
126 126 125 125 123 123 123 123 122 120 117 114 107 90 79 75 59 51 47 38 32 32 32 31 31 30 29 29 27 21 16 10 355
133 134 134 134 133 132 128 126 124 122 118 110 100 79 48 57 50 39 32 24 15 4 1 10 16 19 20 19 17 15 13 12 3
138 137 137 137 137 137 135 136 135 135 135 131 121 94 7 25 24 20 13 12 4 354 354 349 1 8 8 9 8 6 5 5 4
147 148 148 151 151 151 152 151 152 154 153 164 178 158 339 347 2 5 357 358 355 352 349 351 353 356 358 358 358 356 354 354 354
162 161 163 166 172 174 175 180 180 183 192 227 262 294 308 324 338 346 348 349 349 344 349 344 345 346 348 351 349 346 345 344 343
173 180 188 188 191 197 201 209 207 207 227 249 277 282 299 319 334 330 340 342 339 338 338 340 337 334 338 343 342 338 339 338 338
195 205 194 197 197 203 207 215 218 222 269 275 322 322 326 324 318 322 328 331 329 327 326 326 324 321 326 334 339 337 333 333 335
219 215 208 202 207 206 208 223 235 236 263 292 309 307 310 314 317 323 326 325 323 321 321 322 321 314 313 321 323 328 330 334 338
234 227 222 214 212 216 219 230 247 257 276 285 289 295 299 299 309 319 321 322 318 318 319 322 320 314 302 302 301 304 315 318 318
237 235 231 229 234 241 248 252 254 260 269 274 281 284 289 294 304 309 306 311 311 310 318 315 314 311 308 295 290 293 296 295 299
240 235 230 231 237 240 245 247 256 263 266 267 268 281 294 290 291 290 291 291 298 302 296 302 299 309 314 302 291 289 283 280 281
250 240 233 231 236 245 249 256 260 268 274 289 284 282 284 283 284 285 283 282 286 287 283 286 289 293 301 301 294 288 284 282 279
248 240 230 230 233 243 253 255 259 269 273 278 284 282 284 283 286 292 289 286 279 279 273 282 279 282 293 289 290 294 297 299 292
246 239 231 230 234 237 248 257 262 270 276 281 287 284 286 285 285 283 284 288 270 269 273 282 270 286 293 289 289 299 298 296 299
236 239 237 239 234 243 249 254 264 267 273 277 284 288 291 294 294 283 270 279 278 278 277 274 281 296 290 287 286 288 286 288 287
234 236 242 241 239 244 249 255 263 270 270 272 272 287 283 295 300 248 279 284 275 271 276 280 289 298 286 281 273 270 283 285 281
235 242 238 239 245 249 254 259 263 270 273 277 270 268 269 276 285 278 273 262 264 267 280 284 289 282 281 273 276 278 292 301 287
243 249 249 249 257 258 265 270 270 271 274 274 278 276 271 265 263 276 267 270 270 276 281 273 269 274 271 268 271 281 306 306 289
Height
1556 1558 1559 1561 1562 1563 1564 1566 1567 1567 1567 1567 1568 1568 1568 1568 1568 1567 1566 1565 1564 1564 1562 1561 1560 1558 1557 1556 1555 1555 1555 1554 1553
1558 1560 1561 1563 1564 1565 1566 1568 1569 1569 1569 1569 1569 1569 1570 1570 1569 1569 1568 1567 1566 1565 1564 1563 1561 1560 1559 1557 1556 1555 1555 1554 1553
1560 1561 1563 1564 1565 1566 1568 1569 1570 1571 1571 1572 1572 1571 1571 1571 1571 1570 1569 1568 1568 1567 1565 1564 1563 1561 1560 1558 1557 1556 1555 1554 1553
1562 1563 1564 1565 1566 1568 1569 1570 1571 1572 1572 1572 1573 1572 1572 1572 1571 1571 1570 1569 1569 1568 1566 1565 1564 1562 1561 1559 1558 1557 1556 1554 1553
1563 1564 1566 1567 1568 1569 1570 1570 1571 1572 1572 1573 1572 1573 1572 1572 1572 1571 1570 1570 1569 1568 1567 1566 1564 1563 1562 1560 1559 1557 1556 1555 1554
1564 1565 1566 1568 1569 1569 1570 1571 1571 1572 1572 1572 1572 1572 1572 1571 1571 1570 1570 1569 1569 1568 1567 1566 1565 1564 1562 1561 1559 1558 1556 1555 1554
1564 1565 1566 1568 1569 1570 1570 1571 1571 1571 1572 1572 1571 1571 1571 1570 1570 1570 1570 1569 1569 1568 1567 1566 1565 1563 1562 1561 1559 1558 1557 1555 1554
1563 1565 1566 1567 1568 1569 1569 1570 1570 1571 1571 1571 1570 1570 1570 1570 1569 1569 1569 1569 1568 1567 1566 1565 1565 1564 1562 1561 1560 1558 1557 1555 1554
1562 1563 1564 1565 1566 1567 1568 1569 1569 1570 1570 1570 1570 1570 1569 1568 1568 1568 1568 1567 1567 1566 1565 1564 1563 1562 1562 1560 1559 1558 1556 1555 1554
1561 1562 1563 1564 1565 1566 1566 1567 1567 1568 1568 1568 1568 1568 1568 1568 1567 1567 1566 1565 1565 1564 1563 1562 1561 1560 1560 1559 1558 1557 1555 1554 1553
1560 1561 1562 1563 1563 1564 1565 1566 1566 1566 1566 1566 1566 1566 1566 1565 1566 1565 1564 1564 1563 1562 1562 1561 1560 1559 1558 1556 1556 1555 1555 1553 1552
1559 1560 1561 1562 1563 1563 1564 1564 1564 1565 1565 1565 1565 1564 1564 1563 1563 1563 1563 1561 1561 1559 1559 1559 1558 1557 1556 1555 1554 1552 1551 1552 1551
1558 1558 1559 1561 1562 1562 1563 1563 1563 1564 1564 1563 1563 1562 1562 1562 1561 1560 1559 1558 1557 1556 1556 1555 1556 1554 1553 1553 1552 1551 1550 1549 1548
1555 1556 1558 1559 1560 1561 1562 1562 1562 1562 1562 1562 1561 1561 1559 1559 1558 1557 1556 1555 1554 1553 1552 1552 1552 1552 1551 1550 1549 1548 1547 1546 1545
1553 1554 1555 1556 1557 1558 1560 1560 1560 1560 1560 1559 1558 1557 1556 1555 1553 1552 1551 1550 1549 1549 1548 1548 1549 1549 1548 1546 1546 1546 1545 1544 1542
1551 1552 1553 1553 1554 1556 1557 1557 1557 1556 1557 1556 1555 1553 1552 1551 1549 1548 1548 1546 1544 1544 1544 1544 1544 1545 1544 1544 1543 1543 1542 1541 1540
1548 1549 1550 1551 1552 1553 1553 1553 1554 1553 1554 1553 1551 1547 1546 1545 1544 1543 1543 1543 1542 1541 1540 1540 1540 1541 1541 1540 1540 1539 1538 1538 1537
1545 1545 1546 1547 1548 1549 1550 1549 1549 1549 1549 1549 1549 1546 1542 1540 1541 1540 1539 1539 1539 1538 1537 1537 1536 1536 1536 1536 1535 1535 1534 1534 1533
1541 1541 1542 1542 1543 1545 1545 1544 1544 1544 1543 1543 1543 1542 1540 1539 1536 1536 1535 1535 1536 1535 1534 1534 1533 1533 1532 1532 1532 1532 1530 1528 1528
1537 1538 1538 1538 1538 1540 1540 1539 1538 1538 1537 1536 1536 1534 1534 1534 1533 1530 1531 1532 1531 1530 1529 1530 1529 1529 1529 1528 1528 1528 1526 1525 1524